Skip Page Navigation
NASA JPL Caltech
NASA Logo - Jet Propulsion Laboratory + View the NASA Portal
+ Center for Near-Earth Object Studies
JPL Home Earth Solar System Stars & Galaxies Technology
JPL Solar System Dynamics
BODIES ORBITS EPHEMERIDES TOOLS PHYSICAL DATA DISCOVERY FAQ SITE MAP
JPL Small-Body Database Browser
Search: [ help ]  
11510 Borges (1990 VV8)
Classification: Main-belt Asteroid          SPK-ID: 2011510
Ephemeris | Orbit Diagram | Orbital Elements | Mission Design | Physical Parameters | Discovery Circumstances | Close-Approach Data ]

[ hide orbit diagram ]

For accurate long-term ephemerides, please instead use our Horizons system.This orbit viewer was implemented using two-body methods, and hence should not be used for determining accurate long-term trajectories (over several years or decades) or planetary encounter circumstances.


Orbital Elements at Epoch 2459200.5 (2020-Dec-17.0) TDB
Reference: JPL 42 (heliocentric ecliptic J2000)
 Element Value Uncertainty (1-sigma)   Units 
e .07653505344306895 2.2211e-08  
a 2.855780749407471 1.1396e-08 au
q 2.637213417129883 6.6179e-08 au
i 15.27826290847988 7.7576e-07 deg
node 179.6948825845893 3.0179e-06 deg
peri 355.845713023686 7.9367e-06 deg
M 314.1013056687243 7.5307e-06 deg
tp 2459425.241642294568
(2021-Jul-29.74164229)
3.7066e-05 TDB
period 1762.729689914379
4.83
1.0551e-05
2.889e-08
d
yr
n .2042287039582832 1.2225e-09 deg/d
Q 3.07434808168506 1.2268e-08 au
  Orbit Determination Parameters
   # obs. used (total)      2428  
   data-arc span      15716 days (43.03 yr)  
   first obs. used      1978-03-05  
   last obs. used      2021-03-15  
   planetary ephem.      DE441  
   SB-pert. ephem.      SB441-N16  
   condition code      0  
   norm. resid. RMS      .44181  
   source      ORB  
   producer      Otto Matic  
   solution date      2021-Apr-12 22:48:42  

Additional Information
 Earth MOID = 1.64105 au 
 Jupiter MOID = 1.88487 au 
 T_jup = 3.247 
[ show covariance matrix ]

Ephemeris | Orbit Diagram | Orbital Elements | Mission Design | Physical Parameters | Discovery Circumstances | Close-Approach Data ]

Physical Parameter Table
Parameter Symbol Value Units Sigma Reference Notes
absolute magnitude H 12.85   n/a E2021B10  

11510 Borges           Discovered 1990 Nov. 11 by E. W. Elst at the European Southern Observatory.
Jorge Luis Borges (1899-1986), Argentine poet and short-story writer, became famous through his poems Fervor de Buenos Aires (1923). In his El libro de los seres imaginarios (1967) the distinction between poetry and prose almost disappears.
NOTE: some special characters may not display properly (any characters within {} are an attempt to place the proper accent above a character)
Reference: 20000523/MPCPages.arcLast Updated: 2013-03-29

[ show close-approach data ]
Alternate Designations
 1990 VV8 = 1978 EL2 = 1998 MB9 
Ephemeris | Orbit Diagram | Orbital Elements | Mission Design | Physical Parameters | Discovery Circumstances | Close-Approach Data ]
ABOUT SSD CREDITS/AWARDS PRIVACY/COPYRIGHT GLOSSARY LINKS
FirstGov 2021-Apr-20 10:57 UT
(server date/time)  
NASA Home Page
Site Manager:   Ryan S. Park
Webmaster  Alan B. Chamberlin